Starlink 31364

operational
NORAD ID: 59463 Int'l Des: 2024-068 Owner: SPXS Country: US Constellation: starlink
LEOCIRCULAR

About Starlink 31364

Description loading...

Live Position

Loading 3D Globe...

Upcoming Passes

Altitude History

Altitude vs Time

uPlot chart will show altitude changes over time

Two-Line Element Set

1 59463U 24068J 25258.57653870 .00003036 00000-0 11983-3 0 9997
2 59463 43.0033 299.8178 0001002 242.4217 117.6533 15.27573018 81780
Epoch: Sep 15, 2025 • Age: 13 hours

Current Status

Altitude 485.8 km
Velocity 7.63 km/s
Sub-Earth Point 38.10°N, 41.86°W
Launch Date Apr 10, 2024
Age 1.4 years
Type internet

Technical Details

Classification Payload
Mass 730.00 kg
Dry Mass 700.00 kg
Total Mass 730.00 kg
Length 0.30 m
Diameter 4.10 m
Span 29.00 m
Shape Box + pan
Manufacturer SPXS
Bus Type Starlink V2M
Phase Status In Orbit
Owner/State SPXS/US

Large Constellations

Loading constellations...